Snowfall_Accumulation
0.6 2.2 5.5 1.8 1.4 1.6 2.0 1.7 1.3 0.7 0.0 0.2 0.2 0.1 0.0 0.0 0.0 0.0 0.0 0.0 0.0 0.0 0.0 0.0 0.0 0.0 0.0 0.0 0.0 0.0 0.0 0.0 0.0 0.0 0.0 0.0 0.0 0.0 0.0 0.0 0.0 0.0 0.0 0.0
2.4 4.7 0.7 0.1 0.8 1.6 1.9 2.1 1.7 0.6 0.0 0.3 0.4 0.2 0.0 0.0 0.0 0.0 0.0 0.0 0.0 0.0 0.0 0.0 0.0 0.0 0.0 0.0 0.0 0.0 0.0 0.0 0.0 0.0 0.0 0.0 0.0 0.0 0.0 0.0 0.0 0.0 0.0 0.0
4.6 2.0 0.1 0.4 1.3 1.9 1.4 1.9 1.5 1.3 0.6 0.1 0.8 0.9 0.0 0.0 0.0 0.0 0.0 0.0 0.0 0.0 0.0 0.0 0.0 0.0 0.0 0.0 0.0 0.0 0.0 0.0 0.0 0.0 0.0 0.0 0.0 0.0 0.0 0.0 0.0 0.0 0.0 0.0
2.1 0.3 0.2 0.8 1.0 1.3 1.6 0.5 1.1 1.3 2.0 2.9 2.5 5.3 0.8 0.0 0.0 0.0 0.0 0.0 0.0 0.0 0.0 0.0 0.0 0.0 0.0 0.0 0.0 0.0 0.0 0.0 0.0 0.0 0.0 0.0 0.0 0.0 0.0 0.0 0.0 0.0 0.0 0.0
3.0 0.5 0.6 1.3 0.5 0.5 0.9 0.2 0.7 1.4 2.7 3.7 1.4 4.6 2.0 0.2 0.6 0.1 0.1 0.2 0.0 0.0 0.0 0.0 0.0 0.0 0.0 0.0 0.0 0.0 0.0 0.0 0.0 0.0 0.0 0.0 0.0 0.0 0.0 0.0 0.0 0.0 0.0 0.0
0.9 0.0 0.1 0.4 0.0 0.3 0.5 0.4 0.5 0.9 3.2 8.2 3.4 5.3 4.0 3.2 2.8 0.6 0.1 0.1 0.2 0.1 0.1 0.1 0.1 0.0 0.0 0.0 0.0 0.0 0.0 0.0 0.0 0.0 0.0 0.0 0.0 0.0 0.0 0.0 0.0 0.0 0.0 0.0
7.2 0.7 0.3 0.1 1.0 0.5 0.9 5.4 9.8 9.3 8.8 5.7 2.4 4.6 4.8 1.7 0.7 0.4 0.4 0.3 0.4 0.4 0.3 0.3 0.2 0.1 0.0 0.0 0.0 0.0 0.0 0.0 0.0 0.0 0.0 0.0 0.0 0.0 0.0 0.0 0.0 0.0 0.0 0.0
10.6 10.4 0.6 0.1 0.4 1.0 0.9 2.9 7.2 6.9 5.4 3.5 2.8 4.3 5.2 0.2 0.2 0.3 0.3 0.6 0.8 0.8 0.8 0.7 0.5 0.2 0.1 0.0 0.0 0.0 0.0 0.0 0.0 0.0 0.0 0.0 0.0 0.0 0.0 0.0 0.0 0.0 0.0 0.0
6.2 6.8 0.1 0.1 0.0 0.3 2.2 2.8 1.8 6.4 5.7 4.6 3.5 3.6 1.8 0.1 0.1 0.1 0.1 0.5 0.7 0.8 0.7 0.8 0.9 0.9 0.5 0.4 0.0 0.0 0.0 0.0 0.0 0.0 0.0 0.0 0.0 0.0 0.0 0.0 0.0 0.0 0.0 0.0
1.4 4.7 1.3 0.1 0.2 0.1 0.2 0.9 4.0 9.6 9.2 6.0 3.6 3.6 5.6 4.1 2.1 0.2 0.1 0.2 0.4 0.6 0.6 0.7 0.7 0.7 0.5 0.3 0.0 0.0 0.0 0.0 0.0 0.0 0.0 0.0 0.0 0.0 0.0 0.0 0.0 0.0 0.0 0.0
0.6 2.6 3.9 2.2 2.6 2.7 2.0 2.9 4.4 6.5 6.1 6.7 4.1 4.9 4.6 2.8 1.0 0.3 0.1 0.0 0.1 0.1 0.3 0.4 0.5 0.4 0.4 0.1 0.1 0.0 0.1 0.0 0.0 0.0 0.0 0.0 0.0 0.0 0.0 0.0 0.0 0.0 0.0 0.0
0.4 1.9 3.9 2.9 0.0 0.0 0.7 2.0 3.3 7.6 5.8 4.7 4.5 4.7 0.7 0.2 0.2 0.1 0.0 0.0 0.0 0.0 0.1 0.2 0.3 0.3 0.4 0.4 0.3 0.3 0.0 0.0 0.1 0.2 0.1 0.0 0.0 0.0 0.0 0.0 0.0 0.0 0.0 0.0
0.5 3.2 5.9 4.6 1.8 0.0 2.2 1.5 1.8 3.5 6.2 6.2 5.4 4.6 0.3 0.0 0.1 0.2 0.0 0.1 0.2 0.2 0.2 0.3 0.3 0.4 0.4 0.3 0.3 0.3 0.2 0.1 0.1 0.1 0.1 0.1 0.0 0.0 0.0 0.0 0.0 0.0 0.0 0.0
0.1 3.9 6.1 7.1 5.8 4.7 4.3 2.5 1.8 4.7 10.6 5.4 3.6 4.0 3.1 1.4 0.5 0.1 0.1 0.0 0.2 0.1 0.1 0.1 0.1 0.1 0.2 0.2 0.2 0.2 0.4 0.2 0.1 0.1 0.0 0.1 0.1 0.1 0.0 0.0 0.0 0.0 0.0 0.0
0.0 6.3 6.7 5.6 3.3 4.3 4.2 2.9 2.0 3.6 3.0 4.4 2.7 2.7 2.8 0.8 0.4 0.1 0.1 0.1 0.1 0.1 0.0 0.0 0.0 0.0 0.0 0.1 0.1 0.1 0.1 0.2 0.3 0.1 0.1 0.1 0.1 0.1 0.1 0.0 0.0 0.0 0.0 0.0
0.0 6.0 7.3 5.7 2.0 2.3 2.9 1.6 1.5 1.5 0.9 1.2 1.3 1.8 0.6 0.1 0.0 0.1 0.1 0.1 0.1 0.0 0.0 0.0 0.0 0.0 0.0 0.0 0.0 0.1 0.1 0.0 0.1 0.2 0.2 0.0 0.0 0.1 0.1 0.1 0.0 0.0 0.0 0.0
0.5 3.5 8.0 5.9 2.1 2.5 3.3 1.1 0.7 1.1 0.5 0.6 1.2 0.8 0.2 0.2 0.2 0.2 0.1 0.1 0.0 0.0 0.0 0.0 0.0 0.0 0.0 0.0 0.0 0.1 0.1 0.0 0.0 0.1 0.1 0.1 0.1 0.0 0.0 0.1 0.1 0.0 0.2 0.0
0.1 1.7 5.8 5.2 4.4 5.2 1.5 0.0 0.0 0.3 0.4 0.2 0.2 0.2 0.1 0.1 0.1 0.0 0.0 0.0 0.0 0.0 0.0 0.0 0.0 0.0 0.0 0.0 0.0 0.0 0.0 0.0 0.0 0.0 0.0 0.0 0.0 0.0 0.0 0.0 0.1 0.1 0.6 0.6
0.0 0.3 4.6 3.9 3.3 2.3 0.3 0.0 0.0 0.2 0.6 0.0 0.1 0.0 0.0 0.0 0.0 0.0 0.0 0.0 0.0 0.0 0.0 0.0 0.0 0.0 0.0 0.0 0.0 0.0 0.0 0.0 0.0 0.0 0.0 0.0 0.0 0.1 0.2 0.4 0.2 0.7 0.7 1.9
0.0 0.1 1.9 2.7 2.0 1.0 0.4 0.0 0.0 0.0 0.3 0.0 0.0 0.0 0.0 0.0 0.0 0.0 0.0 0.0 0.0 0.0 0.0 0.0 0.0 0.0 0.0 0.0 0.0 0.0 0.0 0.1 0.2 0.3 0.4 0.2 0.2 0.2 0.8 1.6 1.3 2.0 2.2 2.8
0.5 1.0 2.2 2.0 1.5 0.2 0.0 0.0 0.0 0.1 0.8 0.0 0.0 0.0 0.0 0.0 0.0 0.0 0.0 0.0 0.0 0.0 0.0 0.0 0.0 0.0 0.0 0.1 0.0 0.3 0.5 0.7 1.0 0.9 0.7 0.7 0.7 0.9 1.4 1.8 1.5 2.3 2.1 2.0
0.2 0.4 0.6 0.7 1.1 0.4 0.1 0.0 0.1 0.1 0.0 0.0 0.0 0.0 0.0 0.0 0.0 0.0 0.0 0.0 0.0 0.0 0.0 0.0 0.1 0.2 0.3 0.3 0.1 0.5 1.1 1.8 1.4 0.7 1.0 1.4 0.7 0.3 0.8 1.1 1.2 1.0 0.9 0.8
0.2 0.3 0.3 0.3 0.3 0.2 0.1 0.1 0.1 0.0 0.0 0.0 0.0 0.0 0.0 0.0 0.0 0.0 0.0 0.0 0.0 0.0 0.0 0.0 0.0 0.0 0.0 0.0 0.0 0.1 0.2 0.5 0.4 0.3 0.3 0.3 0.3 0.4 0.3 0.4 0.3 0.3 0.3 0.3
0.3 0.2 0.2 0.3 0.3 0.1 0.1 0.0 0.0 0.0 0.0 0.0 0.0 0.0 0.0 0.0 0.0 0.0 0.0 0.0 0.0 0.0 0.0 0.0 0.0 0.0 0.0 0.0 0.0 0.1 0.1 0.0 0.1 0.0 0.0 0.1 0.1 0.1 0.1 0.0 0.1 0.1 0.0 0.1
0.4 0.3 0.5 0.5 0.3 0.1 0.1 0.0 0.0 0.0 0.0 0.0 0.0 0.0 0.0 0.0 0.0 0.0 0.0 0.0 0.0 0.0 0.0 0.1 0.0 0.0 0.0 0.1 0.1 0.1 0.0 0.0 0.1 0.1 0.1 0.1 0.1 0.1 0.2 0.1 0.1 0.1 0.1 0.2
0.3 0.5 0.6 0.6 0.2 0.1 0.1 0.0 0.0 0.0 0.0 0.0 0.0 0.0 0.0 0.0 0.0 0.0 0.0 0.0 0.0 0.0 0.0 0.1 0.0 0.0 0.1 0.1 0.1 0.1 0.1 0.1 0.3 0.3 0.1 0.2 0.2 0.2 0.1 0.2 0.2 0.1 0.1 0.2